STARLINK-32782, 62821

Orbit data source: Space-Track

STARLINK-32782, 62821 is a payload satellite owned by SpaceX/Seattle (US) in LEO that was launched on Fri, 24 Jan 2025 UTC via an FALCON 9 launch vehicle from the Air Force Western Test Range (AFWTR). Payload-class satellites include a variety of spacecraft equipped with specific instruments for various scientific and technological missions. These include communications satellites like Starlink; space stations such as the ISS; scientific satellites like the Hubble; Earth observation satellites from companies like Planet Labs, Umbra, and HawkEye 360; GPS; miniature CubeSats for education and research; and military/defense satellites.

Loading next visibility...
Identifier
62821, 2025-018R
Orbit
LEO
Country
Flag of USUS
Related business
Manufacturer
SpaceX/Seattle
Mission
Operational Commercial Communications
Bus & Motor
STARLINK V2M, Unknown motor
Mass
730 kg wet, ~700 kg dry
Launch date (UTC)
2025-01-24 (1 year ago)
Launch vehicle
FALCON 9
Launch site
Air Force Western Test Range (AFWTR)
Object type
Payload
Rocket body
Debris
Shape & HBR
Box + 2 Pan, 17.7 m
Radar Cross Section
33.884 m², Large (>1 m²)

Expand to show TLE details & history
Last TLE update: 11 hours ago

TLE from 11 hours ago
0 STARLINK-32782
1 62821U 25018R   26131.93668898  .00005928  00000-0  21218-3 0  9996
2 62821  53.1613  15.6863 0001677  87.6868 272.4325 15.30190945 72868
Epoch: 2026-05-11T22:28Z
TLE epoch observation values (Epoch: 2026-05-11T22:28:49.927Z)
Latitude
-0.00002°
Longitude
168.75999°
Altitude
476.093 km
Speed
7.629 km/s
True Right ascension
01h 02m 44s
True Declination
0° 00' 00"
Sunlit
Object was in daylight at epoch
Visualization orbit readout
Latitude
Unknown
Longitude
Unknown
Altitude
Unknown
Speed
Unknown
Apparent Right ascension
Unknown
Apparent Declination
Unknown
Sunlit
N/A
Visualization observer readout
Local Sidereal Time
17:48:24
Azimuth
Unknown
Elevation
Unknown
Doppler factor
Unknown
Orbital elements
Apogee altitude
476.648 km
Perigee altitude
474.349 km
Semi-major axis
6,853.635 km
Eccentricity
0.00017
Inclination
53.1613°
RAAN
15.6863°
Arg. of periapsis
87.6868°
True anomaly
272.4133°
Mean anomaly
272.4325°
Eccentric anomaly
272.4229°
Mean motion
3.82527 °/min
Orbital period
94.11 mins
BSTAR
0.00021218
Loading maneuver chart data...
Computing Atmospheric mass density...
Loading historical data...
Loading historical data...
Loading historical data...
Loading historical data...
Loading historical data...
Loading historical data...
Loading historical data...

Documentation

Showing up to 5 results
|